Torna al catalogo

GAOFEN 3 DEB

AttivoSSO
NORAD 42680·DEBRIS·🇨🇳 China

Lanciato Aug 9, 2016 da Taiyuan Satellite Launch Center

Loading…

Prossimi Passaggi (prossime 24 ore)

TLE

AggiornatoSource: Space-Track

Epoca: Sep 14, 2026, 07:45 UTC

1 42680U 16049E   26257.32358547  .00001021  00000-0  26263-3 0  9995
2 42680  98.4245 273.2550 0015525 190.7616 169.3249 14.52231024529280

Traccia GAOFEN 3 DEB in tempo reale con AllMySat

Download on the App Store